ATLAS 5 CENTAUR DEB, 43983

Orbit data source: Space-Track

ATLAS 5 CENTAUR DEB, 43983 is space debris in HEO originally from a launch on Wed, 17 Sep 2014 UTC launched from the Air Force Eastern Test Range (AFETR). Debris objects in space refer to the collection of defunct objects orbiting the Earth. Examples of debris include non-operational satellites, rocket bodies, and fragments generated from explosions, collisions, or faulty payload assembly.

Loading next visibility...
Identifier
43983, 2014-055AN
Orbit
HEO
Country
Flag of USUS
Related business
Flag of USUnited Launch Alliance/Lockheed Martin (US)
Manufacturer
Unknown
Mission
Spacecraft
Bus & Motor
Unknown
Mass
Unknown
Launch date (UTC)
2014-09-17 (12 years ago)
Launch vehicle
Unknown
Launch site
Air Force Eastern Test Range (AFETR)
Object type
Payload
Rocket body
Debris
Shape & HBR
Unknown shape, 1.1 m
Radar Cross Section
Medium (>0.1 m² and <1 m²)

Expand to show TLE details & history
Last TLE update: 1 week ago

TLE from 1 week ago
0 ATLAS 5 CENTAUR DEB
1 43983U 14055AN  26245.76816107 -.00000138  00000-0  00000-0 0  9990
2 43983  20.8328 108.7856 4874401 227.1101  80.0964  1.90078760 55475
Epoch: 2026-09-02T18:26Z
TLE epoch observation values (Epoch: 2026-09-02T18:26:09.116Z)
Latitude
-0.00001°
Longitude
-149.59626°
Altitude
25,031.329 km
Speed
3.302 km/s
True Right ascension
07h 15m 25s
True Declination
0° 00' 00"
Sunlit
Object was in daylight at epoch
Visualization orbit readout
Latitude
Unknown
Longitude
Unknown
Altitude
Unknown
Speed
Unknown
Apparent Right ascension
Unknown
Apparent Declination
Unknown
Sunlit
N/A
Visualization observer readout
Local Sidereal Time
16:24:01
Azimuth
Unknown
Elevation
Unknown
Doppler factor
Unknown
Orbital elements
Apogee altitude
34,571.487 km
Perigee altitude
7,732.774 km
Semi-major axis
27,530.268 km
Eccentricity
0.48744
Inclination
20.8328°
RAAN
108.7856°
Arg. of periapsis
227.1101°
True anomaly
132.91144°
Mean anomaly
80.0964°
Eccentric anomaly
106.82863°
Mean motion
0.47515 °/min
Orbital period
757.66 mins
BSTAR
0
Loading maneuver chart data...
Computing Atmospheric mass density...

Documentation

Showing up to 5 results
|